Weather History for KSBP - February, 2014

Change the Weather History Date:

Thursday, February 20, 2014

  Actual Average Record
Temperature  
Mean Temperature 64 °F -  
Max Temperature 75 °F 65 °F 81 °F (1965)
Min Temperature 54 °F 43 °F 30 °F (2006)
Growing Degree Days 14 (Base 50)    
Moisture  
Dew Point 32 °F    
Average Humidity 31    
Maximum Humidity 55    
Minimum Humidity 19    
Precipitation  
Precipitation 0.00 in - - ()
Sea Level Pressure  
Sea Level Pressure 30.05 in    
Wind  
Wind Speed 5 mph (NNW)    
Max Wind Speed 16 mph    
Max Gust Speed 20 mph    
Visibility 10 miles    
Events      
Averages and records for this station are not official NWS values.
T = Trace of Precipitation, MM = Missing Value Source: NWS Daily Summary

Daily Weather History Graph

Daily Weather History Graph

Search for Another Location

Airport or City:

Trip Planner

Search our weather history database for the weather conditions in past years. The results will help you decide how hot, cold, wet, or windy it might be!

Date:

Astronomy

Feb. 20, 2014 Rise Set
Actual Time 6:43 AM PST 5:49 PM PST
Civil Twilight 6:17 AM PST 6:15 PM PST
Nautical Twilight 5:47 AM PST 6:45 PM PST
Astronomical Twilight 5:18 AM PST 7:14 PM PST
Moon 11:35 PM PST (2/20) 9:42 AM PST (2/20)
Length of Visible Light 11h 58m
Length of Day
11h 06m
Waning Gibbous, 70% of the Moon is Illuminated
Feb 20
Waning Gibbous
Feb 22
Last Quarter
Mar 1
New
Mar 8
First Quarter
Mar 16
Full

Hourly Weather History & Observations

Time (PST) Temp. Dew Point Humidity Pressure Visibility Wind Dir Wind Speed Gust Speed Precip Events Conditions
12:56 AM 57.0 °F 41.0 °F 55% 30.10 in 10.0 mi NNE 6.9 mph - N/A   Clear
1:56 AM 57.0 °F 37.9 °F 49% 30.10 in 10.0 mi North 4.6 mph - N/A   Clear
2:56 AM 55.0 °F 35.1 °F 47% 30.08 in 10.0 mi Calm Calm - N/A   Clear
3:56 AM 57.0 °F 30.0 °F 36% 30.08 in 10.0 mi Calm Calm - N/A   Clear
4:56 AM 54.0 °F 30.9 °F 41% 30.08 in 10.0 mi Calm Calm - N/A   Clear
5:56 AM 57.0 °F 27.0 °F 32% 30.08 in 10.0 mi WNW 8.1 mph - N/A   Clear
6:56 AM 57.0 °F 26.1 °F 30% 30.09 in 10.0 mi NNW 6.9 mph - N/A   Clear
7:56 AM 59.0 °F 27.0 °F 29% 30.09 in 10.0 mi SSW 4.6 mph - N/A   Clear
8:56 AM 64.9 °F 25.0 °F 22% 30.09 in 10.0 mi Calm Calm - N/A   Clear
9:56 AM 68.0 °F 27.0 °F 21% 30.09 in 10.0 mi Variable 4.6 mph - N/A   Clear
10:56 AM 71.1 °F 28.9 °F 21% 30.09 in 10.0 mi North 8.1 mph 18.4 mph N/A   Clear
11:56 AM 72.0 °F 28.9 °F 20% 30.07 in 10.0 mi Variable 3.5 mph - N/A   Mostly Cloudy
12:56 PM 75.9 °F 32.0 °F 20% 30.05 in 10.0 mi North 11.5 mph - N/A   Mostly Cloudy
1:56 PM 75.9 °F 30.9 °F 19% 30.01 in 10.0 mi East 16.1 mph - N/A   Mostly Cloudy
2:56 PM 75.9 °F 32.0 °F 20% 30.01 in 10.0 mi Calm Calm - N/A   Clear
3:56 PM 73.9 °F 33.1 °F 22% 30.00 in 10.0 mi North 13.8 mph 19.6 mph N/A   Mostly Cloudy
4:56 PM 73.9 °F 32.0 °F 21% 30.00 in 10.0 mi North 5.8 mph - N/A   Mostly Cloudy
5:56 PM 71.1 °F 30.9 °F 23% 29.99 in 10.0 mi North 9.2 mph - N/A   Mostly Cloudy
6:56 PM 66.9 °F 33.1 °F 28% 30.01 in 10.0 mi Variable 3.5 mph - N/A   Scattered Clouds
7:56 PM 63.0 °F 33.1 °F 33% 30.01 in 10.0 mi SSW 4.6 mph - N/A   Clear
8:56 PM 62.1 °F 33.1 °F 34% 30.01 in 10.0 mi SSW 5.8 mph - N/A   Clear
9:56 PM 64.0 °F 35.1 °F 34% 30.02 in 10.0 mi SW 8.1 mph - N/A   Clear
10:56 PM 62.1 °F 36.0 °F 38% 30.03 in 10.0 mi SSW 4.6 mph - N/A   Clear
11:56 PM 60.1 °F 36.0 °F 41% 30.03 in 10.0 mi ESE 4.6 mph - N/A   Clear